Minot Air Force Base, ND

8:17 PM CST on February 09, 2016 (GMT -0600)
Minot Air Force Base

Weather History for KMIB - September, 2012

Change the Weather History Date:

Saturday, September 15, 2012

  Actual Average Record
Temperature  
Mean Temperature 62 °F -  
Max Temperature 82 °F 67 °F 86 °F (1998)
Min Temperature 43 °F 43 °F 29 °F (2011)
Degree Days  
Heating Degree Days 2    
Growing Degree Days 12 (Base 50)    
Moisture  
Dew Point 35 °F    
Average Humidity 35    
Maximum Humidity 69    
Minimum Humidity 19    
Precipitation  
Precipitation 0.00 in - - ()
Sea Level Pressure  
Sea Level Pressure 29.93 in    
Wind  
Wind Speed 10 mph (WNW)    
Max Wind Speed 18 mph    
Max Gust Speed 25 mph    
Visibility 10 miles    
Events      
Averages and records for this station are not official NWS values.
T = Trace of Precipitation, MM = Missing Value Source: NWS Daily Summary

Daily Weather History Graph

Daily Weather History Graph

Search for Another Location

Airport or City:

Trip Planner

Search our weather history database for the weather conditions in past years. The results will help you decide how hot, cold, wet, or windy it might be!

Date:

Astronomy

Sep. 15, 2012 Rise Set
Actual Time 7:23 AM CDT 7:56 PM CDT
Civil Twilight 6:51 AM CDT 8:28 PM CDT
Nautical Twilight 6:14 AM CDT 9:05 PM CDT
Astronomical Twilight 5:34 AM CDT 9:44 PM CDT
Moon 6:58 AM CDT (9/15) 7:23 PM CDT (9/15)
Length of Visible Light 13h 36m
Length of Day
12h 33m
Waning Crescent, 0% of the Moon is Illuminated
Sep 15
Waning Crescent
Sep 15
New
Sep 22
First Quarter
Sep 29
Full
Oct 8
Last Quarter

Hourly Weather History & Observations

Time (CDT) Temp. Windchill Dew Point Humidity Pressure Visibility Wind Dir Wind Speed Gust Speed Precip Events Conditions
12:55 AM 45.1 °F 42.0 °F 32.7 °F 62% 30.04 in 10.0 mi SSE 5.8 mph - N/A   Clear
1:55 AM 43.7 °F 39.7 °F 34.0 °F 69% 30.01 in 10.0 mi SSE 6.9 mph - N/A   Clear
2:55 AM 58.1 °F - 33.1 °F 39% 29.98 in 10.0 mi SSE 10.4 mph - N/A   Clear
3:55 AM 58.1 °F - 32.9 °F 39% 29.95 in 10.0 mi SSE 10.4 mph - N/A   Clear
4:55 AM 56.5 °F - 33.4 °F 42% 29.93 in 10.0 mi SSE 9.2 mph - N/A   Clear
5:55 AM 55.6 °F - 33.1 °F 43% 29.91 in 10.0 mi SSE 9.2 mph - N/A   Clear
6:55 AM 56.8 °F - 33.1 °F 41% 29.90 in 10.0 mi South 13.8 mph - N/A   Clear
7:55 AM 54.5 °F - 33.3 °F 45% 29.91 in 10.0 mi South 9.2 mph - N/A   Clear
8:55 AM 59.0 °F - 34.9 °F 40% 29.91 in 10.0 mi South 6.9 mph - N/A   Clear
9:55 AM 64.8 °F - 34.5 °F 33% 29.90 in 10.0 mi SSW 6.9 mph - N/A   Clear
10:55 AM 70.3 °F - 35.2 °F 28% 29.88 in 10.0 mi West 8.1 mph - N/A   Clear
11:55 AM 70.5 °F - 35.4 °F 28% 29.90 in 10.0 mi WNW 10.4 mph - N/A   Clear
12:55 PM 72.9 °F - 35.4 °F 25% 29.89 in 10.0 mi NW 11.5 mph - N/A   Clear
1:55 PM 76.5 °F - 33.6 °F 21% 29.89 in 10.0 mi WNW 11.5 mph - N/A   Clear
2:55 PM 79.7 °F - 36.0 °F 21% 29.88 in 10.0 mi NW 16.1 mph 25.3 mph N/A   Clear
3:55 PM 81.7 °F - 36.1 °F 20% 29.88 in 10.0 mi NNW 17.3 mph - N/A   Clear
4:55 PM 82.2 °F - 36.5 °F 19% 29.89 in 10.0 mi North 17.3 mph - N/A   Clear
5:55 PM 81.5 °F - 36.5 °F 20% 29.91 in 10.0 mi North 18.4 mph - N/A   Clear
6:55 PM 78.1 °F - 39.0 °F 25% 29.92 in 10.0 mi North 12.7 mph - N/A   Clear
7:55 PM 72.0 °F - 37.6 °F 29% 29.95 in 10.0 mi NNW 8.1 mph - N/A   Clear
8:55 PM 67.1 °F - 36.7 °F 33% 29.97 in 10.0 mi North 6.9 mph - N/A   Clear
9:55 PM 63.5 °F - 36.3 °F 36% 29.99 in 10.0 mi NNW 10.4 mph - N/A   Clear
10:55 PM 60.4 °F - 34.7 °F 38% 30.00 in 10.0 mi North 10.4 mph - N/A   Clear
11:55 PM 56.8 °F - 34.2 °F 42% 30.02 in 10.0 mi North 8.1 mph - N/A   Clear